Weather History for URKA - February, 2013

Change the Weather History Date:

Wednesday, February 27, 2013

  Actual Average Record
Temperature  
Mean Temperature 41 °F -  
Max Temperature 49 °F - - ()
Min Temperature 33 °F - - ()
Degree Days  
Heating Degree Days 24    
Moisture  
Dew Point 31 °F    
Average Humidity 70    
Maximum Humidity 93    
Minimum Humidity 38    
Precipitation  
Precipitation 0.00 in - - ()
Sea Level Pressure  
Sea Level Pressure 30.03 in    
Wind  
Wind Speed 14 mph ()    
Max Wind Speed 20 mph    
Max Gust Speed -    
Visibility 6.1 miles    
Events      
T = Trace of Precipitation, MM = Missing Value Source: Averaged Metar Reports

Daily Weather History Graph

Daily Weather History Graph

Search for Another Location

Airport or City:

Trip Planner

Search our weather history database for the weather conditions in past years. The results will help you decide how hot, cold, wet, or windy it might be!

Date:

Astronomy

Feb. 27, 2013 Rise Set
Actual Time 8:12 AM MSK 7:15 PM MSK
Civil Twilight 7:42 AM MSK 7:44 PM MSK
Nautical Twilight 7:08 AM MSK 8:18 PM MSK
Astronomical Twilight 6:34 AM MSK 8:52 PM MSK
Moon 9:21 PM MSK (2/27) 8:29 AM MSK (2/27)
Length of Visible Light 12h 02m
Length of Day
11h 03m
Full, 98% of the Moon is Illuminated
Feb 27
Full
Mar 5
Last Quarter
Mar 11
New
Mar 19
First Quarter
Mar 27
Full

Hourly Weather History & Observations

Time (MSK) Temp. Windchill Dew Point Humidity Pressure Visibility Wind Dir Wind Speed Gust Speed Precip Events Conditions
12:00 AM 41.0 °F 32.9 °F 32.0 °F 70% 30.09 in - East 15.7 mph - N/A   Clear
1:00 AM 39 °F - 31 °F 63% 30.09 in 6 mi ENE 15.7 mph - -  
1:00 AM 37.4 °F 28.3 °F 30.2 °F 75% 30.09 in - East 15.7 mph - N/A   Clear
2:00 AM 35.6 °F 26.0 °F 30.2 °F 81% 30.09 in - East 15.7 mph - N/A   Clear
3:00 AM 35.6 °F 26.0 °F 30.2 °F 81% 30.06 in - East 15.7 mph - N/A   Clear
4:00 AM 37 °F - 30 °F 68% 30.06 in 6 mi ENE 11.2 mph - -   Clear
4:00 AM 33.8 °F 23.7 °F 30.2 °F 87% 30.06 in - East 15.7 mph - N/A   Clear
5:00 AM 33.8 °F 23.7 °F 30.2 °F 87% 30.04 in - East 15.7 mph - N/A   Clear
6:00 AM 32.0 °F 20.0 °F 28.4 °F 87% 30.04 in - ENE 20.1 mph - N/A   Clear
7:00 AM 32.0 °F 20.0 °F 28.4 °F 87% 30.04 in - ENE 20.1 mph - N/A   Clear
8:00 AM 30.2 °F 25.5 °F 28.4 °F 93% 30.04 in 6.2 mi NW 4.5 mph - N/A   Scattered Clouds
8:30 AM 32.0 °F 27.6 °F 28.4 °F 87% 30.04 in 6.2 mi West 4.5 mph - N/A   Scattered Clouds
9:00 AM 32.0 °F 25.7 °F 28.4 °F 87% 30.04 in 6.2 mi West 6.7 mph - N/A   Partly Cloudy
9:30 AM 32.0 °F 27.6 °F 28.4 °F 87% 30.04 in 6.2 mi NW 4.5 mph - N/A   Partly Cloudy
10:00 AM 36 °F - 30 °F 71% 30.02 in 6 mi NE 13.4 mph - -  
10:00 AM 33.8 °F 23.7 °F 30.2 °F 87% 30.01 in 6.2 mi ENE 15.7 mph - N/A   Partly Cloudy
10:30 AM 35.6 °F 26.0 °F 30.2 °F 81% 30.01 in - ENE 15.7 mph - N/A   Clear
11:00 AM 37.4 °F 29.9 °F 30.2 °F 75% 30.04 in - ENE 11.2 mph - N/A   Clear
11:30 AM 39.2 °F 32.2 °F 30.2 °F 70% 30.04 in - NE 11.2 mph - N/A   Clear
12:00 PM 41.0 °F 32.3 °F 32.0 °F 70% 30.01 in - ENE 17.9 mph - N/A   Clear
12:30 PM 41.0 °F 32.3 °F 32.0 °F 70% 30.01 in - ENE 17.9 mph - N/A   Clear
1:00 PM 47 °F - 32 °F 43% 30.01 in 6 mi ENE 11.2 mph - -  
1:00 PM 42.8 °F 34.7 °F 32.0 °F 66% 30.04 in - ENE 17.9 mph - N/A   Clear
1:30 PM 42.8 °F 34.1 °F 32.0 °F 66% 30.01 in - ENE 20.1 mph - N/A   Clear
2:00 PM 42.8 °F 34.7 °F 32.0 °F 66% 30.01 in - ENE 17.9 mph - N/A   Clear
2:30 PM 44.6 °F 37.0 °F 32.0 °F 61% 30.01 in - ENE 17.9 mph - N/A   Clear
3:00 PM 44.6 °F 36.5 °F 32.0 °F 61% 30.01 in - ENE 20.1 mph - N/A   Clear
3:30 PM 46.4 °F 39.3 °F 33.8 °F 62% 29.98 in - ENE 17.9 mph - N/A   Clear
4:00 PM 50 °F - 32 °F 38% 29.99 in 6 mi NE 8.9 mph - -  
4:00 PM 46.4 °F 38.9 °F 33.8 °F 62% 30.01 in - ENE 20.1 mph - N/A   Clear
4:30 PM 46.4 °F 39.3 °F 33.8 °F 62% 29.98 in - ENE 17.9 mph - N/A   Clear
5:00 PM 46.4 °F 39.9 °F 33.8 °F 62% 30.01 in - ENE 15.7 mph - N/A   Clear
5:30 PM 46.4 °F 39.3 °F 33.8 °F 62% 29.98 in - ENE 17.9 mph - N/A   Clear
6:00 PM 46.4 °F 39.3 °F 33.8 °F 62% 29.98 in - ENE 17.9 mph - N/A   Clear
6:30 PM 46.4 °F 39.9 °F 33.8 °F 62% 29.98 in - ENE 15.7 mph - N/A   Clear
7:00 PM 46 °F - 33 °F 49% 29.99 in 6 mi NE 13.4 mph - -  
7:00 PM 44.6 °F 38.2 °F 33.8 °F 66% 30.01 in - ENE 13.4 mph - N/A   Clear
7:30 PM 42.8 °F 35.9 °F 32.0 °F 66% 30.01 in - NE 13.4 mph - N/A   Clear
8:00 PM 41.0 °F 32.9 °F 32.0 °F 70% 30.01 in - NE 15.7 mph - N/A   Clear
9:00 PM 39.2 °F 30.0 °F 30.2 °F 70% 30.01 in - ENE 17.9 mph - N/A   Clear
10:00 PM 41 °F - 29 °F 51% 30.01 in 6 mi ENE 15.7 mph - -  
10:00 PM 37.4 °F 28.3 °F 30.2 °F 75% 30.04 in - ENE 15.7 mph - N/A   Clear
11:00 PM 37.4 °F 29.1 °F 28.4 °F 70% 30.04 in - East 13.4 mph - N/A   Clear